Flag for Italy Weather past 2 weeks in Messina, Italy

Now
63 °F

Partly sunny.


Feels Like: 63 °F
Forecast: 54 / 60 °F
Wind: 12 mph from North

Location: Reggio Calabria

Current Time: Dec 21, 2014 at 11:06:50 AM

Latest Report: Dec 21, 2014 at 9:50 AM


Visibility: N/A

Pressure: 30.24 "Hg

Humidity: 73%

Dew point: 54 °F

Location of MessinaLocation

Historic Weather in Messina — Graph

°F

Messina temperature yesterday

Maximum temperature yesterday: 64 °F (at 11:50 AM)
Minimum temperature yesterday: 52 °F (at 6:50 AM)
Average temperature yesterday: 59 °F

Past Weeks' High & Low Weather Summary

 TemperatureHumidityPressure
High68 °F (Dec 6, 12:50 PM)94% (Dec 16, 11:50 AM)30.27 "Hg (Dec 16, 11:50 AM)
Low46 °F (Dec 13, 5:50 AM)46% (Dec 7, 11:50 AM)29.71 "Hg (Dec 9, 11:50 AM)
Average58 °F69%30.03 "Hg
* Reported Dec 6 9:50 AM — Dec 21 9:50 AM, Messina, Weather by CustomWeather, © 2014

Note: Actual official high and low records may vary slightly from our data, if they occured in-between our weather recording intervals... More about our weather records

Advertising

Messina weather history for previous 24 hours

 ConditionsComfort  
Time TempWeatherWind HumidityBarometerVisibility
9:50 AM
Dec 21
63 °FPartly sunny.12 mph73%30.24 "HgN/A
8:50 AM61 °FSunny.12 mph77%30.18 "Hg10 mi
7:50 AM61 °FPassing clouds.8 mph72%30.18 "HgN/A
6:50 AM59 °FPassing clouds.7 mph77%30.18 "HgN/A
6:00 AM59 °FClear.7 mph82%30.15 "Hg10 mi
11:50 PM
Dec 20
55 °FClear.7 mph72%30.18 "Hg10 mi
10:50 PM54 °FClear.8 mph77%30.21 "Hg10 mi
9:50 PM54 °FClear.7 mph82%30.18 "Hg10 mi
8:50 PM55 °FClear.8 mph77%30.21 "Hg10 mi
7:50 PM55 °FClear.7 mph77%30.21 "Hg10 mi
6:50 PM55 °FClear.6 mph77%30.21 "Hg10 mi
5:50 PM59 °FClear.8 mph72%30.21 "Hg10 mi
4:50 PM61 °FPassing clouds.12 mph72%30.18 "HgN/A
3:50 PM63 °FPassing clouds.13 mph64%30.18 "HgN/A
2:50 PM63 °FPassing clouds.13 mph68%30.18 "HgN/A
1:50 PM64 °FPassing clouds.15 mph64%30.18 "HgN/A
12:50 PM64 °FPassing clouds.13 mph64%30.21 "HgN/A
11:50 AM64 °FPassing clouds.13 mph60%30.21 "HgN/A
Weather by CustomWeather, © 2014

See weather overviewHow to use our weather pages